Anderson, CA

12:21 AM PDT on September 29, 2016 (GMT -0700)
Redding Municipal

Weather History for KRDD - September, 2013

Change the Weather History Date:

Sunday, September 8, 2013

  Actual Average Record
Temperature  
Mean Temperature 82 °F -  
Max Temperature 104 °F 92 °F 105 °F (2011)
Min Temperature 59 °F 59 °F 50 °F (2002)
Degree Days  
Heating Degree Days 0    
Cooling Degree Days 17    
Growing Degree Days 32 (Base 50)    
Moisture  
Dew Point 40 °F    
Average Humidity 31    
Maximum Humidity 51    
Minimum Humidity 10    
Precipitation  
Precipitation 0.00 in 0.02 in 0.23 in (2010)
Month to date precipitation 0.00 0.14  
Year to date precipitation 9.30 21.27  
Since 1 July precipitation T  
Sea Level Pressure  
Sea Level Pressure 29.78 in    
Wind  
Wind Speed 3 mph (NW)    
Max Wind Speed 10 mph    
Max Gust Speed 15 mph    
Visibility 10 miles    
Events      
T = Trace of Precipitation, MM = Missing Value Source: NWS Daily Summary

Daily Weather History Graph

Daily Weather History Graph

Search for Another Location

Airport or City:

Trip Planner

Search our weather history database for the weather conditions in past years. The results will help you decide how hot, cold, wet, or windy it might be!

Date:

Astronomy

Sep. 08, 2013 Rise Set
Actual Time 6:43 AM PDT 7:29 PM PDT
Civil Twilight 6:15 AM PDT 7:56 PM PDT
Nautical Twilight 5:43 AM PDT 8:29 PM PDT
Astronomical Twilight 5:09 AM PDT 9:03 PM PDT
Moon 10:07 AM PDT (9/8) 9:07 PM PDT (9/8)
Length of Visible Light 13h 40m
Length of Day
12h 45m
Waxing Crescent, 12% of the Moon is Illuminated
Sep 8
Waxing Crescent
Sep 12
First Quarter
Sep 19
Full
Sep 26
Last Quarter
Oct 4
New

Hourly Weather History & Observations

Time (PDT) Temp. Dew Point Humidity Pressure Visibility Wind Dir Wind Speed Gust Speed Precip Events Conditions
12:53 AM 66.9 °F 37.9 °F 34% 29.83 in 10.0 mi Calm Calm - N/A   Clear
1:53 AM 66.9 °F 37.9 °F 34% 29.84 in 10.0 mi NNW 4.6 mph - N/A   Clear
2:53 AM 64.9 °F 39.9 °F 40% 29.84 in 10.0 mi North 3.5 mph - N/A   Clear
3:53 AM 63.0 °F 41.0 °F 45% 29.84 in 10.0 mi Calm Calm - N/A   Clear
4:53 AM 62.1 °F 42.1 °F 48% 29.84 in 10.0 mi Calm Calm - N/A   Clear
5:53 AM 59.0 °F 41.0 °F 51% 29.85 in 10.0 mi Calm Calm - N/A   Clear
6:53 AM 59.0 °F 41.0 °F 51% 29.86 in 10.0 mi Calm Calm - N/A   Clear
7:53 AM 66.9 °F 44.1 °F 44% 29.86 in 10.0 mi Calm Calm - N/A   Clear
8:53 AM 75.9 °F 44.1 °F 32% 29.86 in 10.0 mi NNW 4.6 mph - N/A   Clear
9:53 AM 84.0 °F 44.1 °F 25% 29.84 in 10.0 mi NW 4.6 mph - N/A   Clear
10:53 AM 90.0 °F 42.1 °F 19% 29.83 in 10.0 mi NW 5.8 mph - N/A   Clear
11:53 AM 93.9 °F 42.1 °F 17% 29.81 in 10.0 mi North 9.2 mph - N/A   Clear
12:53 PM 98.1 °F 41.0 °F 14% 29.78 in 10.0 mi NNE 4.6 mph - N/A   Clear
1:53 PM 100.0 °F 39.0 °F 12% 29.76 in 10.0 mi Variable 6.9 mph - N/A   Clear
2:53 PM 100.9 °F 36.0 °F 11% 29.73 in 10.0 mi West 9.2 mph - N/A   Clear
3:53 PM 102.0 °F 35.1 °F 10% 29.71 in 10.0 mi Variable 5.8 mph - N/A   Clear
4:53 PM 102.0 °F 35.1 °F 10% 29.69 in 10.0 mi SW 6.9 mph - N/A   Clear
5:53 PM 100.9 °F 35.1 °F 10% 29.68 in 10.0 mi SSW 6.9 mph - N/A   Clear
6:53 PM 99.0 °F 37.0 °F 12% 29.68 in 10.0 mi SW 4.6 mph - N/A   Clear
7:53 PM 90.0 °F 39.9 °F 17% 29.69 in 10.0 mi Calm Calm - N/A   Clear
8:53 PM 87.1 °F 39.0 °F 18% 29.70 in 10.0 mi Calm Calm - N/A   Clear
9:53 PM 80.1 °F 41.0 °F 25% 29.73 in 10.0 mi East 4.6 mph - N/A   Clear
10:53 PM 78.1 °F 41.0 °F 27% 29.74 in 10.0 mi WNW 4.6 mph - N/A   Clear
11:53 PM 77.0 °F 43.0 °F 30% 29.75 in 10.0 mi WNW 3.5 mph - N/A   Clear